Cloud_Cover
0 0 0 0 0 0 0 0 0 0 0 0 0 0 0 0 0 0 0 0 0 0 0 0 0 0 0 5 5 5 0 0 0 0 0 0 0 0 0 0 0 0 0 0
0 0 0 0 0 0 0 0 0 0 0 0 0 0 0 0 0 0 0 0 0 0 0 0 0 0 0 5 5 3 0 0 0 0 0 0 0 0 0 0 0 0 0 0
0 0 0 0 0 0 0 0 0 0 0 0 0 0 0 0 0 0 0 0 0 0 0 0 0 0 5 5 5 0 0 0 0 0 0 0 0 0 0 0 0 0 0 0
0 0 0 0 0 0 0 0 0 0 0 0 0 1 3 0 0 0 0 0 0 0 0 0 0 17 56 57 0 0 0 0 0 0 0 0 0 0 0 0 0 0 0 0
7 5 4 3 0 0 0 0 0 0 0 0 3 1 5 0 0 0 0 0 0 0 0 0 13 70 30 1 0 0 0 0 0 0 0 0 0 0 0 0 0 0 0 0
93 36 45 24 4 0 0 0 0 0 0 0 0 0 5 0 0 0 0 0 0 0 0 4 5 16 0 0 0 0 0 0 0 0 0 0 0 0 0 0 0 0 0 0
100 100 100 100 31 1 0 0 0 0 0 0 0 0 0 0 0 0 0 0 0 0 0 1 0 0 0 0 0 2 4 0 0 0 0 0 0 0 0 4 10 64 59 40
100 100 100 10 5 1 0 0 0 0 0 0 0 0 0 0 0 0 0 0 0 0 0 0 0 0 0 3 0 4 5 5 0 0 0 0 0 3 23 61 100 100 100 100
47 90 74 75 88 5 5 0 0 0 0 0 0 0 0 0 0 0 0 0 0 0 0 0 0 0 0 0 2 1 5 1 0 0 0 2 36 81 100 100 100 100 100 100
0 0 1 70 30 5 1 0 1 0 0 0 0 0 0 0 0 0 0 0 0 0 0 0 0 0 3 3 5 5 4 0 0 0 2 47 91 83 82 100 100 100 100 100
0 0 0 0 1 0 0 0 0 0 0 0 0 0 0 0 0 0 0 0 0 0 0 0 0 0 5 5 4 2 0 0 0 3 36 76 81 93 100 100 100 100 100 100
28 3 2 18 5 5 16 5 1 0 0 0 0 4 0 2 1 0 0 0 0 0 0 0 0 0 5 5 0 0 0 0 11 50 86 91 98 100 100 100 100 100 100 100
99 5 14 50 55 100 35 14 4 0 0 0 0 5 0 0 0 0 0 0 0 0 0 0 0 3 1 4 0 0 0 20 60 81 96 97 100 100 99 100 100 100 100 100
99 7 25 94 97 100 95 22 5 5 4 5 7 5 5 6 9 5 3 5 0 2 0 0 4 0 0 5 1 1 46 94 100 99 100 100 100 100 100 100 100 100 100 100
100 76 74 20 72 100 100 54 5 4 3 5 5 43 95 100 91 23 4 2 5 3 2 5 1 5 3 0 7 32 96 100 100 100 100 100 100 100 100 100 100 100 100 100
100 100 100 98 98 98 100 52 27 81 5 5 9 95 100 100 88 5 5 5 5 5 5 3 4 0 0 36 98 100 100 100 100 100 100 100 100 100 100 100 100 100 100 100
100 100 100 100 100 96 82 100 100 100 30 28 27 38 79 68 5 5 9 22 5 5 5 0 0 2 73 100 100 100 100 100 100 100 100 100 100 100 100 100 100 100 100 100
100 100 100 100 100 100 100 100 100 100 100 100 91 7 5 5 5 5 5 5 5 5 1 0 3 67 100 100 100 100 100 100 100 100 100 100 100 100 100 100 100 100 100 100
100 100 100 100 100 100 100 100 100 100 100 100 100 100 19 5 5 5 18 11 5 4 0 26 78 100 100 100 100 100 100 100 100 100 100 100 100 100 100 100 100 100 100 100
100 100 100 100 100 100 100 100 100 100 98 78 21 7 5 5 5 5 5 5 5 0 15 47 100 100 100 100 100 100 100 100 100 100 100 100 84 93 100 100 100 100 100 100
48 100 100 100 100 100 100 100 100 98 27 5 19 5 13 32 5 60 9 5 3 0 34 53 100 100 100 100 100 100 100 100 100 100 100 100 100 100 100 95 99 100 100 100
87 100 100 100 100 100 100 100 100 100 70 5 5 5 7 5 49 100 5 5 5 10 17 90 100 100 100 100 100 100 100 100 100 78 96 100 100 63 100 99 100 100 100 100
70 36 94 100 100 100 100 100 100 100 52 38 7 66 10 50 96 5 5 5 12 33 14 53 82 100 43 18 71 100 100 100 100 100 100 100 100 100 100 100 100 90 100 100
90 21 100 100 100 100 100 100 100 100 85 15 83 6 5 5 5 5 4 0 23 0 0 18 22 21 5 5 97 100 100 100 100 100 100 100 100 85 100 100 86 25 57 88
64 63 40 97 100 100 100 100 100 100 96 16 6 51 36 5 5 5 4 5 0 0 2 4 3 5 4 7 100 100 100 100 100 100 100 100 100 100 100 100 100 100 100 100
85 13 50 84 50 98 100 100 100 100 13 5 5 81 68 5 32 51 5 2 0 0 5 5 4 1 6 33 99 100 100 100 100 100 100 100 100 96 100 100 61 77 100 100